スミス彗星

C/2019 K7 ( Smith )

English version
Home page
Updated on October 6, 2021

---------------------------------------------------------------------

・ プロフィール

発見日 2019年5月30日
発見光度 17.7等
発見者 Ken W. Smith (Asteroid Terrestrial-Impact Last Alert System (ATLAS) search program)

・ 写真集

・ 軌道要素

Epoch 2020 May 31.0 TT = JDT 2459000.5
T 2020 June 16.89384 TT                                 Rudenko
q   4.4750172            (2000.0)            P               Q
z  -0.0003359      Peri.   27.29068     +0.46155923     -0.44585259
 +/-0.0000005      Node   307.92355     -0.88100335     -0.12911912
e   1.0015033      Incl.  103.53356     +0.10390466     +0.88574473
From 1491 observations 2017 Oct. 8-2021 Apr. 30, mean residual 0".6.

・ 星図

・ 光度変化

        m1 =  6.0 + 5 logΔ + 10.0 log r          [    ,-275]  (              〜2019年 9月15日)
        m1 = -1.5 + 5 logΔ + 20.0 log r(t - 80)  [-275,    ]  (2019年 9月15日〜              )

---------------------------------------------------------------------

軌道要素はM.P.E.C. 2021-J28に掲載されたものです。
星図はステラナビゲータ Ver.10 (アストロアーツ) で作成したものです。
光度グラフはComet for Windowsで作成したものです。

---------------------------------------------------------------------

Copyright(C) Seiichi Yoshida (comet@aerith.net). All rights reserved.